Location: Alvediston
(51.0078°N, 2.0364°W)
Time: 09:43:00
(UTC+00:00)

Meteor 1-19 Rocket - Pass Details

Date: 27 February 2020
Orbit: 814 x 921 km, 81.2° (Epoch: 29 March)

Event Time Altitude Azimuth Distance (km) Brightness Sun altitude
Rises 18:59:44 0° 348° (NNW) 3,517 7.6 -12.6°
Reaches altitude 10° 19:02:15 10° 350° (N) 2,557 6.9 -13.0°
Maximum altitude 19:08:04 72° 76° (ENE) 910 4.2 -13.9°
Drops below altitude 10° 19:13:39 10° 161° (SSE) 2,466 6.4 -14.7°
Sets 19:16:02 0° 163° (SSE) 3,382 7.1 -15.1°
